SIC0904 EDDL-LIRF

Flight info

Callsign SIC0904
Flight time N/A
Altitude 37000
Route DODEN7Z/05R DODEN Y852 TUSUK DCT ULNOK L607 ABUKA DCT BATUB DCT TIRUL M738 NATAG DCT LORLO DCT ADOSA DCT GAVRA Y345 RITEB
Aircraft A320/M-SDE1E2E3FGIJ1J4RWXY/LB1G1

Departure

Time 2026-04-30 21:49
Airport Düsseldorf Airport (EDDL)

Arrival

Time N/A
Airport Rome–Fiumicino Leonardo da Vinci International Airport (LIRF)
Time Latitude Longitude Altitude Speed Heading
2026-04-30 21:21 51.27785 6.75912 125 ft 0 kts 91°
2026-04-30 21:42 51.27785 6.75911 129 ft 1 kts 91°
2026-04-30 21:42 51.27785 6.75874 124 ft 4 kts 90°
2026-04-30 21:42 51.27785 6.75840 125 ft 4 kts 70°
2026-04-30 21:42 51.27770 6.75815 124 ft 4 kts
2026-04-30 21:43 51.27757 6.75809 124 ft 4 kts 339°
2026-04-30 21:43 51.27750 6.75812 127 ft 0 kts
2026-04-30 21:45 51.27797 6.75814 127 ft 16 kts
2026-04-30 21:45 51.27858 6.75706 125 ft 15 kts 269°
2026-04-30 21:46 51.27822 6.75565 126 ft 14 kts 231°
2026-04-30 21:46 51.27773 6.75437 125 ft 13 kts 268°
2026-04-30 21:46 51.27833 6.75355 124 ft 7 kts 333°
2026-04-30 21:46 51.27874 6.75322 123 ft 7 kts 333°
2026-04-30 21:47 51.27916 6.75288 121 ft 9 kts 333°
2026-04-30 21:47 51.27987 6.75264 121 ft 10 kts 28°
2026-04-30 21:47 51.28016 6.75317 125 ft 0 kts 53°
2026-04-30 21:48 51.28019 6.75323 125 ft 8 kts 53°
2026-04-30 21:48 51.28220 6.75746 129 ft 85 kts 52°
2026-04-30 21:48 51.28709 6.76768 128 ft 145 kts 53°
2026-04-30 21:49 51.29346 6.78124 622 ft 153 kts 54°
2026-04-30 21:49 51.29987 6.79493 1330 ft 154 kts 60°
2026-04-30 21:49 51.30671 6.80958 1723 ft 177 kts 62°
2026-04-30 21:49 51.31452 6.82638 2075 ft 200 kts 62°
2026-04-30 21:50 51.32314 6.84480 2456 ft 221 kts 61°
2026-04-30 21:50 51.33290 6.86558 2895 ft 246 kts 60°
2026-04-30 21:50 51.34325 6.88827 3609 ft 257 kts 60°
2026-04-30 21:50 51.35151 6.91318 4557 ft 252 kts 81°
2026-04-30 21:51 51.35184 6.94076 5467 ft 251 kts 101°
2026-04-30 21:51 51.34910 6.96860 6418 ft 254 kts 101°
2026-04-30 21:51 51.34624 6.99647 7297 ft 257 kts 101°
2026-04-30 21:51 51.34326 7.02496 8158 ft 261 kts 101°
2026-04-30 21:52 51.34023 7.05386 8999 ft 266 kts 100°
2026-04-30 21:52 51.33717 7.08325 9858 ft 270 kts 100°
2026-04-30 21:52 51.33410 7.11314 10627 ft 277 kts 100°
2026-04-30 21:52 51.33007 7.14467 10918 ft 301 kts 107°
2026-04-30 21:53 51.32183 7.17669 11142 ft 324 kts 118°
2026-04-30 21:53 51.30858 7.20671 11658 ft 336 kts 130°
2026-04-30 21:53 51.29196 7.23338 12392 ft 341 kts 134°
2026-04-30 21:53 51.27502 7.26006 13171 ft 344 kts 133°
2026-04-30 21:54 51.25796 7.28707 13940 ft 346 kts 133°
2026-04-30 21:54 51.24078 7.31430 14632 ft 350 kts 133°
2026-04-30 21:54 51.22342 7.34178 15269 ft 353 kts 133°
2026-04-30 21:54 51.20589 7.36947 15890 ft 358 kts 133°
2026-04-30 21:55 51.18809 7.39755 16509 ft 362 kts 133°
2026-04-30 21:55 51.17012 7.42581 17135 ft 366 kts 133°
2026-04-30 21:55 51.15187 7.45440 17743 ft 370 kts 133°
2026-04-30 21:55 51.13355 7.48276 18344 ft 374 kts 133°
2026-04-30 21:56 51.11449 7.51192 18933 ft 378 kts 134°
2026-04-30 21:56 51.09564 7.54057 19449 ft 382 kts 134°
2026-04-30 21:56 51.07634 7.56984 20020 ft 384 kts 134°
2026-04-30 21:56 51.05691 7.59928 20599 ft 388 kts 133°
2026-04-30 21:57 51.03731 7.62903 21112 ft 392 kts 133°
2026-04-30 21:57 51.01754 7.65906 21640 ft 395 kts 133°
2026-04-30 21:57 50.99760 7.68938 22141 ft 398 kts 133°
2026-04-30 21:57 50.97748 7.71992 22632 ft 402 kts 134°
2026-04-30 21:58 50.95548 7.74761 23108 ft 409 kts 144°
2026-04-30 21:58 50.93124 7.77172 23583 ft 412 kts 145°
2026-04-30 21:58 50.90675 7.79582 24024 ft 416 kts 145°
2026-04-30 21:58 50.88211 7.81996 24398 ft 419 kts 146°
2026-04-30 21:59 50.85723 7.84430 24774 ft 421 kts 146°
2026-04-30 21:59 50.83225 7.86878 25143 ft 424 kts 146°
2026-04-30 21:59 50.80712 7.89340 25503 ft 426 kts 146°
2026-04-30 22:00 50.75630 7.94311 26201 ft 432 kts 146°
2026-04-30 22:00 50.70494 7.99331 26866 ft 438 kts 145°
2026-04-30 22:00 50.67898 8.01868 27183 ft 441 kts 145°
2026-04-30 22:01 50.65282 8.04418 27504 ft 443 kts 145°
2026-04-30 22:01 50.62602 8.06856 27814 ft 448 kts 151°
2026-04-30 22:01 50.59695 8.08681 28145 ft 453 kts 161°
2026-04-30 22:01 50.56605 8.09766 28454 ft 458 kts 170°
2026-04-30 22:02 50.53421 8.10227 28756 ft 461 kts 173°
2026-04-30 22:02 50.50209 8.10639 29041 ft 463 kts 173°
2026-04-30 22:02 50.46997 8.11058 29323 ft 465 kts 173°
2026-04-30 22:02 50.43760 8.11487 29592 ft 467 kts 173°
2026-04-30 22:03 50.40521 8.11916 29845 ft 469 kts 173°
2026-04-30 22:03 50.37266 8.12343 30093 ft 471 kts 173°
2026-04-30 22:03 50.34001 8.12765 30423 ft 470 kts 173°
2026-04-30 22:03 50.30744 8.13185 30748 ft 469 kts 173°
2026-04-30 22:04 50.27496 8.13602 31046 ft 468 kts 173°
2026-04-30 22:04 50.24254 8.14022 31333 ft 467 kts 173°
2026-04-30 22:04 50.17780 8.14890 31895 ft 466 kts 171°
2026-04-30 22:05 50.14611 8.15842 32179 ft 463 kts 162°
2026-04-30 22:05 50.11593 8.17515 32469 ft 458 kts 152°
2026-04-30 22:05 50.08791 8.19827 32768 ft 455 kts 146°
2026-04-30 22:05 50.06076 8.22354 33061 ft 454 kts 146°
2026-04-30 22:06 50.03364 8.24868 33340 ft 455 kts 146°
2026-04-30 22:06 49.97913 8.29903 33847 ft 456 kts 146°
2026-04-30 22:06 49.95187 8.32415 34143 ft 456 kts 146°
2026-04-30 22:07 49.92465 8.34921 34407 ft 455 kts 146°
2026-04-30 22:07 49.89771 8.37394 34661 ft 455 kts 146°
2026-04-30 22:07 49.87015 8.39918 34937 ft 454 kts 145°
2026-04-30 22:07 49.84466 8.42635 35199 ft 448 kts 137°
2026-04-30 22:08 49.82162 8.45852 35452 ft 445 kts 133°
2026-04-30 22:08 49.79921 8.49131 35677 ft 445 kts 133°
2026-04-30 22:08 49.77632 8.52467 35914 ft 444 kts 133°
2026-04-30 22:08 49.75365 8.55722 36148 ft 445 kts 136°
2026-04-30 22:09 49.72897 8.58518 36365 ft 449 kts 145°
2026-04-30 22:09 49.70108 8.60714 36576 ft 453 kts 155°
2026-04-30 22:09 49.67097 8.62191 36782 ft 457 kts 164°
2026-04-30 22:09 49.63960 8.63088 36979 ft 458 kts 166°
2026-04-30 22:10 49.60836 8.63943 37164 ft 458 kts 166°
2026-04-30 22:10 49.57700 8.64807 37320 ft 458 kts 166°
2026-04-30 22:10 49.51418 8.66557 37353 ft 459 kts 166°
2026-04-30 22:11 49.45238 8.68756 37354 ft 453 kts 155°
2026-04-30 22:11 49.42314 8.70573 37355 ft 452 kts 153°
2026-04-30 22:12 49.36502 8.74253 37350 ft 452 kts 154°
2026-04-30 22:12 49.30681 8.77900 37347 ft 452 kts 154°
2026-04-30 22:13 49.24850 8.81528 37345 ft 452 kts 154°
2026-04-30 22:13 49.19020 8.85165 37346 ft 453 kts 154°
2026-04-30 22:14 49.13185 8.88809 37341 ft 454 kts 153°
2026-04-30 22:14 49.08317 8.91842 37331 ft 455 kts 153°
2026-04-30 22:15 49.02444 8.95478 37324 ft 456 kts 154°
2026-04-30 22:15 48.96568 8.99109 37328 ft 456 kts 154°
2026-04-30 22:16 48.90675 9.02737 37330 ft 457 kts 154°
2026-04-30 22:17 48.78881 9.09984 37327 ft 458 kts 154°
2026-04-30 22:17 48.70022 9.15401 37338 ft 458 kts 154°
2026-04-30 22:18 48.61139 9.20817 37330 ft 460 kts 153°
2026-04-30 22:19 48.52223 9.26241 37323 ft 461 kts 153°
2026-04-30 22:20 48.43325 9.31619 37321 ft 462 kts 153°
2026-04-30 22:20 48.34371 9.36989 37327 ft 462 kts 153°
2026-04-30 22:21 48.28402 9.40576 37330 ft 462 kts 153°
2026-04-30 22:21 48.22435 9.44167 37330 ft 462 kts 154°
2026-04-30 22:22 48.16458 9.47740 37331 ft 463 kts 153°
2026-04-30 22:22 48.10468 9.51309 37321 ft 464 kts 153°
2026-04-30 22:23 48.04470 9.54876 37317 ft 464 kts 153°
2026-04-30 22:23 47.98887 9.59482 37308 ft 455 kts 140°
2026-04-30 22:24 47.93668 9.64835 37307 ft 456 kts 140°
2026-04-30 22:24 47.88440 9.70164 37291 ft 456 kts 140°
2026-04-30 22:25 47.83200 9.75498 37326 ft 457 kts 140°
2026-04-30 22:25 47.77967 9.80821 37297 ft 458 kts 140°
2026-04-30 22:26 47.70090 9.88780 37286 ft 459 kts 140°
2026-04-30 22:27 47.64801 9.94128 37284 ft 460 kts 140°
2026-04-30 22:27 47.56863 10.02123 37272 ft 460 kts 140°
2026-04-30 22:28 47.48931 10.10065 37292 ft 462 kts 140°
2026-04-30 22:29 47.38265 10.20698 37279 ft 463 kts 140°
2026-04-30 22:31 47.19530 10.39293 37295 ft 465 kts 140°
2026-04-30 22:32 47.05979 10.52300 37250 ft 471 kts 149°
2026-04-30 22:33 46.90205 10.59891 37252 ft 478 kts 158°
2026-04-30 22:35 46.74301 10.67035 37276 ft 479 kts 159°
2026-04-30 22:36 46.58006 10.72688 37271 ft 484 kts 165°
2026-04-30 22:37 46.44850 10.76853 37277 ft 484 kts 165°
2026-04-30 22:38 46.31736 10.81154 37338 ft 483 kts 165°
2026-04-30 22:39 46.21883 10.84338 37376 ft 484 kts 164°
2026-04-30 22:40 46.02165 10.90646 37329 ft 484 kts 165°
2026-04-30 22:41 45.85759 10.95884 37352 ft 483 kts 165°
2026-04-30 22:43 45.66055 11.02130 37390 ft 484 kts 166°
2026-04-30 22:44 45.53135 11.07434 37369 ft 484 kts 160°
2026-04-30 22:45 45.33841 11.16104 37326 ft 486 kts 162°
2026-04-30 22:47 45.14426 11.24545 37327 ft 487 kts 162°
2026-04-30 22:48 45.01442 11.30169 37314 ft 488 kts 163°
2026-04-30 22:49 44.81979 11.38536 37334 ft 489 kts 163°
2026-04-30 22:51 44.62438 11.46890 37367 ft 490 kts 163°
2026-04-30 22:52 44.52634 11.51064 37348 ft 491 kts 163°
2026-04-30 22:53 44.39525 11.56613 37341 ft 493 kts 164°
2026-04-30 22:53 44.29661 11.60764 37337 ft 494 kts 164°
2026-04-30 22:55 44.13156 11.67684 37371 ft 496 kts 164°
2026-04-30 22:56 43.99934 11.73225 37346 ft 496 kts 165°
2026-04-30 22:57 43.83368 11.80085 37354 ft 497 kts 165°
2026-04-30 22:57 43.76742 11.82813 37137 ft 496 kts 166°
2026-04-30 22:58 43.70056 11.85133 35830 ft 496 kts 169°
2026-04-30 22:59 43.61018 11.87798 33354 ft 503 kts 170°
2026-04-30 22:59 43.50723 11.90984 30155 ft 510 kts 169°